[[{"header":{"parameterUnit":"m.s-1","parameterCategory":1,"la1":30.2991,"la2":30.254,"lo1":-89.0895,"lo2":-89.0444,"dy":0.0017,"dx":0.0017,"nx":28,"ny":28,"refTime":"2025-04-15T21:00:00:Z","depth":0,"parameterNumber":2,"parameterNumberName":"U-component_of_WINDS"},"data":[0,0,0,0,0,0,0,0,0,0,0,0,0,0,0,0,0,0,0,0,0,0,0,0,0,0,0,0,0,0,0,0,0,0,0,0,0,0,0,0,0,0,0,0,0,0,0,0,0,0,0,0,0,0,0,0,0,0,-3.5729,-3.5729,0,-3.5734,-3.5734,-3.5734,-3.571,-3.5709,-3.5709,-3.5708,-3.5713,-3.5714,-3.5715,0,0,0,0,0,0,0,0,0,0,0,0,0,-3.5699,-3.57,-3.5729,-3.5729,-3.5729,-3.5734,-3.5734,-3.5734,-3.571,-3.5709,-3.5708,-3.5708,-3.5713,-3.5714,-3.5715,0,0,0,0,0,0,0,0,0,0,0,0,0,-3.5709,-3.57,-3.5729,-3.5718,-3.5717,-3.5734,-3.5734,-3.5734,-3.571,-3.5709,-3.5708,-3.5707,-3.5713,-3.5714,-3.5715,-3.5744,0,0,-3.5719,-3.5719,0,0,0,0,0,0,0,0,-3.5709,-3.571,-3.5719,-3.5719,-3.5717,-3.572,-3.5726,-3.5738,-3.5711,-3.5713,-3.5708,-3.5707,-3.5717,-3.5717,-3.5721,-3.5744,-3.5744,-3.5719,-3.572,-3.572,-3.5721,0,0,0,0,0,0,0,-3.5708,-3.571,-3.5731,-3.5719,-3.5718,-3.5713,-3.5713,-3.5728,-3.5721,-3.5713,-3.5711,-3.5712,-3.5716,-3.572,-3.5721,-3.5744,-3.5719,-3.572,-3.5721,-3.5721,-3.5793,-3.5794,0,0,0,0,0,0,-3.5709,-3.571,-3.5731,-3.5731,-3.571,-3.5714,-3.5714,-3.5721,-3.572,-3.5719,-3.5713,-3.5711,-3.5718,-3.5719,-3.5721,-3.5754,-3.572,-3.5721,-3.5722,-3.5791,-3.5793,-3.5794,0,0,0,0,0,0,-3.5708,-3.5711,-3.5731,-3.572,-3.5722,-3.5716,-3.5723,-3.5721,-3.5725,-3.572,-3.5719,-3.5718,-3.5717,-3.5719,-3.5738,-3.5754,-3.5722,-3.5723,-3.579,-3.5792,-3.5793,-3.5821,0,0,0,0,0,0,-3.5707,-3.5711,-3.5721,-3.572,-3.5723,-3.5748,-3.5724,-3.5722,-3.5727,-3.5724,-3.5725,-3.5724,-3.5717,-3.5737,-3.574,-3.5755,-3.5724,-3.5789,-3.5791,-3.5793,-3.5819,-3.5824,-3.5828,0,0,0,0,0,-3.5706,-3.5729,-3.5722,-3.5724,-3.5735,-3.5749,-3.575,-3.5741,-3.5728,-3.5739,-3.5736,-3.5724,-3.5753,-3.5739,-3.5742,-3.5758,-3.5787,-3.579,-3.5793,-3.5817,-3.5823,-3.5828,0,0,0,0,0,0,-3.5731,-3.5728,-3.572,-3.5743,-3.5747,-3.5745,-3.5757,-3.5748,-3.5755,-3.5752,-3.5741,-3.5742,-3.5763,-3.5763,-3.5748,-3.5786,-3.5768,-3.5771,-3.5785,-3.5791,-3.5795,-3.5794,-3.5725,0,0,0,0,0,-3.5739,-3.575,-3.5747,-3.5767,-3.577,-3.5764,-3.5769,-3.5762,-3.5765,-3.5766,-3.5765,-3.5769,-3.5778,-3.5785,-3.5794,-3.582,-3.5819,-3.5833,-3.5837,-3.5841,-3.5843,-3.5857,-3.5863,-3.5803,-3.5803,-3.5803,0,0,-3.5755,-3.5755,-3.5763,-3.5772,-3.5774,-3.5786,-3.5765,-3.5778,-3.5786,-3.5768,-3.5786,-3.5786,-3.5789,-3.5812,-3.5822,-3.5813,-3.586,-3.5844,-3.5847,-3.5847,-3.586,-3.5866,-3.5871,-3.5805,-3.5804,-3.5804,0,0,-3.5791,-3.5793,-3.5809,-3.5812,-3.5815,-3.5812,-3.5816,-3.5816,-3.5815,-3.5833,-3.582,-3.5831,-3.5848,-3.5851,-3.5855,-3.5894,-3.5883,-3.5898,-3.592,-3.5934,-3.5939,-3.5943,-3.5956,-3.5961,-3.5901,-3.5901,-3.5901,0,-3.5811,-3.5828,-3.5819,-3.5834,-3.5838,-3.5824,-3.5841,-3.5844,-3.585,-3.5854,-3.5844,-3.5865,-3.5867,-3.589,-3.59,-3.5904,-3.5908,-3.5896,-3.5939,-3.5943,-3.5947,-3.5959,-3.5964,-3.5902,-3.5902,-3.5902,-3.5902,0,-3.5852,-3.5864,-3.5878,-3.5884,-3.5891,-3.5906,-3.5901,-3.5909,-3.5902,-3.59,-3.5919,-3.5921,-3.593,-3.5935,-3.5929,-3.5958,-3.5952,-3.5941,-3.5921,-3.5954,-3.5966,-3.5971,-3.5905,-3.5904,-3.5904,-3.5903,0,0,-3.59,-3.5904,-3.5908,-3.5911,-3.5915,-3.5924,-3.5941,-3.595,-3.5956,-3.5962,-3.5975,-3.5991,-3.5981,-3.5985,-3.5979,-3.5992,-3.6022,-3.5979,-3.5979,-3.5986,-3.6054,-3.6062,-3.6067,-3.6016,-3.6017,-3.6018,-3.6054,0,-3.5934,-3.5961,-3.5955,-3.5981,-3.5992,-3.598,-3.5994,-3.5998,-3.5997,-3.6007,-3.6006,-3.6017,-3.6003,-3.6005,-3.6017,-3.6016,-3.6036,-3.6014,-3.6027,-3.6028,-3.6025,-3.6074,-3.6081,-3.6115,-3.6058,-3.6059,-3.606,0,-3.5977,-3.5984,-3.6012,-3.6015,-3.6019,-3.6032,-3.604,-3.605,-3.6055,-3.6053,-3.6059,-3.6052,-3.6068,-3.605,-3.6072,-3.6058,-3.6063,-3.6064,-3.6065,-3.6064,-3.6044,-3.6073,-3.6125,-3.613,-3.6067,-3.6066,-3.6066,0,-3.6008,-3.6026,-3.6044,-3.6048,-3.6051,-3.6061,-3.6063,-3.6067,-3.6073,-3.6081,-3.6085,-3.6095,-3.61,-3.6108,-3.6103,-3.6091,-3.6126,-3.6108,-3.6125,-3.6125,-3.6131,-3.613,-3.6183,-3.6137,-3.6137,-3.6137,-3.6137,0,-3.6046,-3.6063,-3.6058,-3.607,-3.6089,-3.6083,-3.6102,-3.6103,-3.6107,-3.6118,-3.6109,-3.612,-3.6114,-3.6125,-3.6122,-3.614,-3.6143,-3.6142,-3.6141,-3.6142,-3.6142,-3.6144,-3.6141,-3.6139,-3.6138,-3.6138,-3.6138,0,-3.6083,-3.6081,-3.61,-3.6103,-3.6104,-3.6118,-3.6121,-3.6132,-3.6131,-3.6146,-3.6149,-3.6147,-3.616,-3.6157,-3.617,-3.6168,-3.6192,-3.6188,-3.619,-3.6188,-3.6204,-3.6202,-3.626,-3.6267,-3.6217,-3.6218,-3.6218,0,-3.6106,-3.6119,-3.6124,-3.6131,-3.6134,-3.6146,-3.6152,-3.6148,-3.6155,-3.6163,-3.6173,-3.6185,-3.6193,-3.6214,-3.6214,-3.6225,-3.6221,-3.624,-3.6222,-3.6223,-3.6219,-3.6218,-3.6219,-3.6243,-3.6243,-3.6244,-3.6244,0,-3.6148,-3.6147,-3.6156,-3.6166,-3.6175,-3.6182,-3.6189,-3.6195,-3.6191,-3.62,-3.6213,-3.622,-3.6235,-3.6246,-3.6256,-3.6259,-3.6251,-3.6251,-3.6255,-3.6255,-3.6255,-3.6254,-3.6198,-3.6249,-3.6248,-3.6248,-3.6248,-3.6247,-3.6178,-3.6189,-3.6194,-3.6206,-3.6211,-3.6218,-3.6228,-3.6229,-3.624,-3.6251,-3.6248,-3.6262,-3.6268,-3.6281,-3.6285,-3.6297,-3.6289,-3.6295,-3.6297,-3.6298,-3.6299,-3.6255,-3.6299,-3.6299,-3.6298,-3.6298,-3.6298,0,-3.6218,-3.6221,-3.6232,-3.6242,-3.6252,-3.6245,-3.6252,-3.626,-3.6273,-3.6279,-3.6289,-3.6304,-3.6316,-3.6318,-3.6329,-3.6338,-3.6334,-3.6341,-3.6339,-3.634,-3.6306,-3.6301,-3.6343,-3.6343,-3.6343,-3.6343,-3.6343,-3.6343,-3.624,-3.6258,-3.6258,-3.6279,-3.6282,-3.6296,-3.6301,-3.6307,-3.6312,-3.633,-3.634,-3.6341,-3.6346,-3.6358,-3.6368,-3.6369,-3.6373,-3.638,-3.6379,-3.6347,-3.6342,-3.6338,-3.6333,-3.6382,-3.6382,-3.6412,-3.6412,-3.6412]},{"header":{"parameterUnit":"m.s-1","parameterCategory":1,"la1":30.2991,"la2":30.254,"lo1":-89.0895,"lo2":-89.0444,"dy":0.0017,"dx":0.0017,"nx":28,"ny":28,"refTime":"2025-04-15T21:00:00:Z","depth":0,"parameterNumber":3,"parameterNumberName":"V-component_of_WINDS"},"data":[0,0,0,0,0,0,0,0,0,0,0,0,0,0,0,0,0,0,0,0,0,0,0,0,0,0,0,0,0,0,0,0,0,0,0,0,0,0,0,0,0,0,0,0,0,0,0,0,0,0,0,0,0,0,0,0,0,0,4.8639,4.8639,0,4.8646,4.8646,4.8646,4.8651,4.8651,4.8651,4.8651,4.8654,4.8654,4.8654,0,0,0,0,0,0,0,0,0,0,0,0,0,4.8628,4.8628,4.8639,4.8639,4.8639,4.8646,4.8646,4.8646,4.8651,4.8651,4.8651,4.8651,4.8654,4.8654,4.8654,0,0,0,0,0,0,0,0,0,0,0,0,0,4.8633,4.8628,4.8639,4.8642,4.8643,4.8646,4.8646,4.8646,4.8651,4.8651,4.8651,4.8651,4.8654,4.8654,4.8654,4.8653,0,0,4.8655,4.8655,0,0,0,0,0,0,0,0,4.8633,4.8634,4.8642,4.8642,4.8642,4.8647,4.8643,4.8648,4.8651,4.8647,4.8651,4.8651,4.8652,4.8652,4.8653,4.8654,4.8654,4.8655,4.8655,4.8655,4.8655,0,0,0,0,0,0,0,4.8633,4.8633,4.8641,4.8642,4.8642,4.8643,4.8644,4.8644,4.8649,4.8648,4.8648,4.8649,4.8652,4.8653,4.8653,4.8654,4.8655,4.8655,4.8655,4.8655,4.8656,4.8656,0,0,0,0,0,0,4.8632,4.8633,4.8641,4.8642,4.8638,4.8643,4.8644,4.8646,4.8649,4.865,4.8649,4.8649,4.8653,4.8653,4.8653,4.8653,4.8655,4.8655,4.8655,4.8656,4.8656,4.8656,0,0,0,0,0,0,4.8632,4.8633,4.8641,4.8638,4.8639,4.8643,4.8645,4.8646,4.8647,4.865,4.8651,4.8649,4.8653,4.8653,4.8654,4.8654,4.8655,4.8655,4.8656,4.8656,4.8656,4.8653,0,0,0,0,0,0,4.8631,4.8633,4.8633,4.8638,4.8639,4.8642,4.8645,4.8646,4.8647,4.8648,4.865,4.8651,4.8653,4.8654,4.8654,4.8654,4.8655,4.8656,4.8656,4.8656,4.8653,4.8653,4.8653,0,0,0,0,0,4.8631,4.8631,4.8633,4.8634,4.8639,4.8642,4.8643,4.8646,4.8647,4.8647,4.865,4.8651,4.8654,4.8654,4.8654,4.8654,4.8656,4.8656,4.8656,4.8653,4.8653,4.8653,0,0,0,0,0,0,4.8624,4.8631,4.8633,4.8635,4.8638,4.8643,4.8643,4.8645,4.8647,4.8647,4.865,4.8651,4.8652,4.8653,4.8653,4.8654,4.8655,4.8655,4.8653,4.8653,4.8653,4.8652,4.8655,0,0,0,0,0,4.8623,4.8625,4.8631,4.8632,4.8633,4.8638,4.8639,4.8642,4.8645,4.8646,4.8648,4.865,4.8651,4.8652,4.8654,4.8654,4.8654,4.8654,4.8653,4.8653,4.8653,4.8654,4.8654,4.8655,4.8655,4.8655,0,0,4.862,4.8624,4.8625,4.863,4.8633,4.8635,4.8639,4.8641,4.8642,4.8645,4.8647,4.8649,4.8651,4.8652,4.8653,4.8653,4.8653,4.8653,4.8653,4.8653,4.8654,4.8654,4.8654,4.8655,4.8655,4.8655,0,0,4.8615,4.8619,4.862,4.8624,4.8629,4.8632,4.8632,4.8637,4.8639,4.8641,4.8644,4.8646,4.8648,4.865,4.8651,4.865,4.8652,4.8651,4.8649,4.865,4.865,4.865,4.865,4.865,4.8651,4.8651,4.8651,0,4.8611,4.8615,4.862,4.8623,4.8625,4.863,4.8632,4.8634,4.8639,4.864,4.8641,4.8645,4.8647,4.8649,4.8649,4.865,4.865,4.865,4.865,4.865,4.865,4.865,4.865,4.865,4.865,4.865,4.865,0,4.8609,4.8613,4.8613,4.8619,4.8622,4.8624,4.8629,4.8631,4.8634,4.8637,4.8639,4.8642,4.8645,4.8645,4.8647,4.8648,4.8648,4.865,4.8651,4.865,4.865,4.865,4.865,4.865,4.865,4.865,0,0,4.8599,4.861,4.861,4.8614,4.8621,4.8623,4.8625,4.8629,4.8631,4.8634,4.8637,4.8639,4.8641,4.8643,4.8645,4.8646,4.8646,4.8648,4.8648,4.8648,4.8648,4.8647,4.8647,4.8648,4.8648,4.8648,4.8648,0,4.8597,4.8602,4.8608,4.8611,4.8615,4.862,4.8622,4.8626,4.863,4.8633,4.8636,4.8638,4.864,4.8642,4.8643,4.8646,4.8646,4.8646,4.8649,4.8649,4.8649,4.8647,4.8646,4.8646,4.8648,4.8648,4.8648,0,4.8593,4.8599,4.8603,4.8611,4.8612,4.8614,4.8619,4.8622,4.8627,4.863,4.8633,4.8636,4.8638,4.864,4.8644,4.8643,4.8645,4.8647,4.8647,4.8647,4.8648,4.8648,4.8646,4.8646,4.8648,4.8648,4.8648,0,4.8587,4.8594,4.8598,4.8601,4.861,4.8612,4.8615,4.8621,4.8623,4.8628,4.8629,4.8633,4.8635,4.8638,4.8642,4.8643,4.8646,4.8647,4.8648,4.8648,4.8648,4.8648,4.8647,4.8649,4.8649,4.8649,4.8649,0,4.8583,4.8585,4.8596,4.8598,4.8601,4.8608,4.861,4.8614,4.8619,4.8622,4.8627,4.863,4.8635,4.8638,4.8641,4.8645,4.8645,4.8647,4.8648,4.8647,4.8647,4.8648,4.8648,4.8649,4.8649,4.8649,4.8649,0,4.8575,4.8582,4.8587,4.8596,4.8599,4.8601,4.8608,4.861,4.8615,4.8619,4.862,4.8627,4.8631,4.8636,4.8641,4.8643,4.8646,4.8647,4.8645,4.8645,4.8646,4.8646,4.8645,4.8646,4.8647,4.8647,4.8647,0,4.8572,4.8574,4.8585,4.8588,4.8592,4.8597,4.86,4.8607,4.861,4.8617,4.8619,4.8624,4.8628,4.8635,4.8639,4.8644,4.8645,4.8645,4.8645,4.8645,4.8645,4.8645,4.8646,4.8644,4.8644,4.8644,4.8644,0,4.8566,4.857,4.8576,4.8583,4.8587,4.8593,4.8598,4.86,4.8608,4.8612,4.8617,4.8621,4.8627,4.8632,4.8638,4.8641,4.8644,4.8644,4.8644,4.8643,4.8642,4.8643,4.8644,4.8644,4.8644,4.8644,4.8644,4.8644,4.8561,4.8564,4.8572,4.8578,4.8584,4.859,4.8593,4.8599,4.8604,4.8611,4.8614,4.862,4.8626,4.8633,4.8637,4.8641,4.8642,4.8642,4.8642,4.8642,4.8642,4.8642,4.8642,4.8642,4.8642,4.8642,4.8642,0,4.8556,4.8562,4.8568,4.8577,4.8582,4.8586,4.8593,4.8597,4.8602,4.8608,4.8613,4.8619,4.8625,4.8631,4.8636,4.8638,4.864,4.864,4.8639,4.864,4.8641,4.864,4.8638,4.8638,4.8638,4.8638,4.8638,4.8638,4.8554,4.856,4.8565,4.8573,4.8579,4.8586,4.8589,4.8595,4.86,4.8607,4.8613,4.8617,4.8623,4.863,4.8635,4.8636,4.8638,4.8638,4.864,4.864,4.864,4.864,4.864,4.8638,4.8638,4.8639,4.8639,4.8639]}]]